TimeCST,TemperatureF,Dew PointF,Humidity,Sea Level PressureIn,VisibilityMPH,Wind Direction,Wind SpeedMPH,Gust SpeedMPH,PrecipitationIn,Events,Conditions,WindDirDegrees,DateUTC
12:15 AM,17.6,14.2,86,30.30,10.0,SW,8.1,-,N/A,,Clear,220,2013-01-04 06:15:00
12:35 AM,17.1,14.0,88,30.29,10.0,SW,5.8,-,N/A,,Clear,220,2013-01-04 06:35:00
12:55 AM,17.2,14.0,87,30.28,10.0,SW,5.8,-,N/A,,Clear,220,2013-01-04 06:55:00
1:15 AM,16.5,13.5,88,30.27,10.0,SW,6.9,-,N/A,,Clear,230,2013-01-04 07:15:00
1:35 AM,16.2,13.1,88,30.26,10.0,SW,6.9,-,N/A,,Clear,220,2013-01-04 07:35:00
1:55 AM,16.7,14.0,89,30.26,10.0,Calm,Calm,-,N/A,,Clear,0,2013-01-04 07:55:00
2:35 AM,15.4,12.2,87,30.26,10.0,Calm,Calm,-,N/A,,Clear,0,2013-01-04 08:35:00
2:55 AM,13.8,11.3,90,30.26,10.0,South,4.6,-,N/A,,Clear,190,2013-01-04 08:55:00
3:15 AM,15.3,12.6,89,30.26,10.0,SSW,3.5,-,N/A,,Clear,210,2013-01-04 09:15:00
6:15 AM,9.3,6.3,87,30.22,10.0,SSE,3.5,-,N/A,,Clear,160,2013-01-04 12:15:00
6:35 AM,8.8,6.3,89,30.22,10.0,South,3.5,-,N/A,,Clear,170,2013-01-04 12:35:00
6:55 AM,10.2,7.7,90,30.22,10.0,South,4.6,-,N/A,,Clear,180,2013-01-04 12:55:00
7:15 AM,12.0,9.0,88,30.22,10.0,South,3.5,-,N/A,,Clear,180,2013-01-04 13:15:00
7:35 AM,12.4,8.6,85,30.22,10.0,South,3.5,-,N/A,,Clear,190,2013-01-04 13:35:00
7:55 AM,11.5,8.1,86,30.22,10.0,Calm,Calm,-,N/A,,Clear,0,2013-01-04 13:55:00
8:15 AM,11.8,8.4,86,30.22,10.0,Calm,Calm,-,N/A,,Clear,0,2013-01-04 14:15:00
8:35 AM,12.0,8.4,85,30.22,10.0,Calm,Calm,-,N/A,,Clear,0,2013-01-04 14:35:00
8:55 AM,14.7,10.0,82,30.22,10.0,SW,6.9,-,N/A,,Clear,220,2013-01-04 14:55:00
9:15 AM,15.6,10.4,80,30.23,10.0,SSW,3.5,-,N/A,,Clear,210,2013-01-04 15:15:00
9:35 AM,16.7,10.8,77,30.22,10.0,SSW,8.1,-,N/A,,Clear,210,2013-01-04 15:35:00
9:55 AM,17.6,11.1,76,30.23,10.0,SW,3.5,-,N/A,,Clear,230,2013-01-04 15:55:00
10:15 AM,18.5,11.3,73,30.24,10.0,SW,4.6,-,N/A,,Clear,230,2013-01-04 16:15:00
10:35 AM,19.4,11.8,72,30.25,10.0,SSW,5.8,-,N/A,,Clear,210,2013-01-04 16:35:00
10:55 AM,20.7,12.2,70,30.25,10.0,SW,4.6,-,N/A,,Clear,220,2013-01-04 16:55:00
11:15 AM,21.7,13.1,69,30.24,10.0,South,4.6,-,N/A,,Clear,190,2013-01-04 17:15:00
11:35 AM,22.1,13.6,70,30.23,10.0,South,10.4,-,N/A,,Clear,190,2013-01-04 17:35:00
11:55 AM,23.9,14.2,66,30.22,10.0,South,6.9,-,N/A,,Clear,190,2013-01-04 17:55:00
12:15 PM,24.8,14.7,66,30.22,10.0,SSW,9.2,-,N/A,,Clear,210,2013-01-04 18:15:00
12:35 PM,25.7,15.4,65,30.20,10.0,South,4.6,-,N/A,,Clear,190,2013-01-04 18:35:00
12:55 PM,25.7,16.0,67,30.19,10.0,South,6.9,-,N/A,,Clear,190,2013-01-04 18:55:00
1:15 PM,26.6,16.9,67,30.19,10.0,South,6.9,-,N/A,,Clear,180,2013-01-04 19:15:00
1:35 PM,27.1,18.0,68,30.18,10.0,South,4.6,-,N/A,,Clear,180,2013-01-04 19:35:00
1:55 PM,27.9,18.7,68,30.17,10.0,South,5.8,-,N/A,,Clear,180,2013-01-04 19:55:00
2:15 PM,28.4,19.2,69,30.17,10.0,South,5.8,-,N/A,,Clear,180,2013-01-04 20:15:00
2:35 PM,29.1,19.0,66,30.16,10.0,South,3.5,-,N/A,,Clear,180,2013-01-04 20:35:00
2:55 PM,30.6,18.7,61,30.16,10.0,WSW,3.5,-,N/A,,Clear,250,2013-01-04 20:55:00
3:15 PM,30.7,18.5,60,30.15,10.0,Calm,Calm,-,N/A,,Clear,0,2013-01-04 21:15:00
3:35 PM,29.8,19.4,65,30.16,10.0,South,3.5,-,N/A,,Clear,170,2013-01-04 21:35:00
3:55 PM,28.4,19.9,71,30.16,10.0,South,6.9,-,N/A,,Clear,180,2013-01-04 21:55:00
4:15 PM,27.5,19.6,72,30.17,10.0,South,9.2,-,N/A,,Clear,170,2013-01-04 22:15:00
4:35 PM,26.6,19.2,74,30.17,10.0,South,8.1,-,N/A,,Clear,180,2013-01-04 22:35:00
4:55 PM,26.4,18.3,71,30.17,10.0,South,8.1,-,N/A,,Clear,190,2013-01-04 22:55:00
5:35 PM,26.1,17.8,71,30.16,10.0,South,4.6,-,N/A,,Clear,190,2013-01-04 23:35:00
5:55 PM,22.8,16.2,76,30.16,10.0,South,5.8,-,N/A,,Clear,190,2013-01-04 23:55:00
6:15 PM,21.4,16.0,80,30.17,10.0,South,5.8,-,N/A,,Clear,190,2013-01-05 00:15:00
6:35 PM,19.9,14.5,80,30.17,10.0,South,5.8,-,N/A,,Clear,190,2013-01-05 00:35:00
6:55 PM,18.1,13.3,81,30.17,10.0,South,4.6,-,N/A,,Clear,170,2013-01-05 00:55:00
7:15 PM,18.3,13.8,83,30.17,10.0,South,3.5,-,N/A,,Clear,180,2013-01-05 01:15:00
7:35 PM,19.4,14.9,83,30.16,10.0,South,5.8,-,N/A,,Clear,170,2013-01-05 01:35:00
7:55 PM,17.2,13.5,85,30.16,10.0,South,5.8,-,N/A,,Clear,180,2013-01-05 01:55:00
8:15 PM,15.4,11.8,86,30.16,10.0,South,5.8,-,N/A,,Clear,180,2013-01-05 02:15:00
8:35 PM,16.0,12.9,88,30.16,10.0,Calm,Calm,-,N/A,,Clear,0,2013-01-05 02:35:00
8:55 PM,16.9,13.6,87,30.16,10.0,SSE,4.6,-,N/A,,Clear,160,2013-01-05 02:55:00
9:15 PM,14.4,11.8,90,30.16,10.0,SSE,4.6,-,N/A,,Clear,160,2013-01-05 03:15:00
9:35 PM,14.0,11.3,89,30.15,10.0,South,3.5,-,N/A,,Clear,190,2013-01-05 03:35:00
9:55 PM,13.8,11.5,90,30.15,10.0,South,4.6,-,N/A,,Clear,190,2013-01-05 03:55:00
10:15 PM,12.6,9.7,88,30.14,10.0,SSW,3.5,-,N/A,,Clear,200,2013-01-05 04:15:00
10:35 PM,11.7,8.6,88,30.14,10.0,South,5.8,-,N/A,,Clear,190,2013-01-05 04:35:00
10:55 PM,11.7,7.9,85,30.13,10.0,Calm,Calm,-,N/A,,Clear,0,2013-01-05 04:55:00
11:15 PM,12.0,8.8,87,30.13,10.0,South,4.6,-,N/A,,Clear,170,2013-01-05 05:15:00
11:35 PM,12.0,8.4,85,30.12,10.0,South,8.1,-,N/A,,Clear,170,2013-01-05 05:35:00
11:55 PM,12.2,8.4,85,30.12,10.0,South,6.9,-,N/A,,Clear,180,2013-01-05 05:55:00